Location: Tamazert
(32.6352°N, 5.2072°W)
Time: 05:02:32
(UTC+00:00)

Vanguard 2 - Pass Details

Date: 07 October 2022
Orbit: 553 x 2933 km, 32.9° (Epoch: 26 November)

Event Time Altitude Azimuth Distance (km) Brightness Sun altitude
Rises 09:44:39 0° 208° (SSW) 3,387 11.0 38.7°
Reaches altitude 10° 09:47:09 10° 195° (SSW) 2,695 10.7 39.1°
Maximum altitude 09:52:38 27° 138° (SE) 2,218 12.0 40.0°
Drops below altitude 10° 10:00:45 10° 86° (E) 4,097 11.8 41.2°
Sets 10:05:34 0° 76° (ENE) 5,540 12.2 41.9°
